Boundary Cnty AP, Bonners Fer, ID

10:53 PM PDT on October 21, 2017 (GMT -0700)
Boundary Cnty AP, Bonners Fer

Weather History for K65S - January, 2014

Change the Weather History Date:

Saturday, January 18, 2014

  Actual Average (KSZT) Record (KSZT)
Temperature  
Mean Temperature 29 °F -  
Max Temperature 30 °F 35 °F 42 °F (2015)
Min Temperature 28 °F 23 °F 28 °F (2017)
Degree Days  
Heating Degree Days 36    
Moisture  
Dew Point 26 °F    
Average Humidity 91    
Maximum Humidity 93    
Minimum Humidity 86    
Precipitation  
Precipitation 0.00 in - - ()
Sea Level Pressure  
Sea Level Pressure 30.30 in    
Wind  
Wind Speed 1 mph (NW)    
Max Wind Speed 5 mph    
Max Gust Speed -    
Visibility 10 miles    
Events      
Averages and records for this station are not official NWS values.
T = Trace of Precipitation, MM = Missing Value Source: NWS Daily Summary

Daily Weather History Graph

Daily Weather History Graph

Search for Another Location

Airport or City:

Trip Planner

Search our weather history database for the weather conditions in past years. The results will help you decide how hot, cold, wet, or windy it might be!

Date:

Astronomy

Jan. 18, 2014 Rise Set
Actual Time 7:30 AM PST 4:21 PM PST
Civil Twilight 6:55 AM PST 4:56 PM PST
Nautical Twilight 6:16 AM PST 5:35 PM PST
Astronomical Twilight 5:38 AM PST 6:13 PM PST
Moon 7:25 PM PST (1/18) 8:16 AM PST (1/18)
Length of Visible Light 10h 01m
Length of Day
8h 51m
Waning Gibbous, 94% of the Moon is Illuminated
Jan 18
Waning Gibbous
Jan 23
Last Quarter
Jan 30
New
Feb 6
First Quarter
Feb 14
Full

Hourly Weather History & Observations

Time (PST) Temp. Windchill Dew Point Humidity Pressure Visibility Wind Dir Wind Speed Gust Speed Precip Events Conditions
12:10 AM 28.4 °F 24.6 °F 26.6 °F 93% 30.39 in 10.0 mi NNW 3.5 mph - N/A   Overcast
12:30 AM 28.4 °F - 26.6 °F 93% 30.39 in 10.0 mi Calm Calm - N/A   Overcast
12:50 AM 28.4 °F - 26.6 °F 93% 30.39 in 10.0 mi Calm Calm - N/A   Overcast
1:10 AM 28.4 °F - 26.6 °F 93% 30.39 in 10.0 mi Calm Calm - N/A   Overcast
1:30 AM 28.4 °F 24.6 °F 26.6 °F 93% 30.39 in 10.0 mi North 3.5 mph - N/A   Overcast
1:50 AM 28.4 °F - 26.6 °F 93% 30.39 in 10.0 mi Calm Calm - N/A   Overcast
2:10 AM 28.4 °F - 26.6 °F 93% 30.39 in 10.0 mi Calm Calm - N/A   Overcast
2:30 AM 28.4 °F - 26.6 °F 93% 30.39 in 10.0 mi Calm Calm - N/A   Overcast
2:50 AM 28.4 °F - 26.6 °F 93% 30.39 in 10.0 mi Calm Calm - N/A   Overcast
3:10 AM 28.4 °F - 26.6 °F 93% 30.39 in 10.0 mi Calm Calm - N/A   Overcast
3:30 AM 28.4 °F - 26.6 °F 93% 30.39 in 10.0 mi Calm Calm - N/A   Overcast
3:50 AM 28.4 °F - 26.6 °F 93% 30.39 in 10.0 mi Calm Calm - N/A   Overcast
4:10 AM 28.4 °F - 26.6 °F 93% 30.38 in 10.0 mi Calm Calm - N/A   Overcast
4:30 AM 28.4 °F - 26.6 °F 93% 30.38 in 10.0 mi Calm Calm - N/A   Overcast
4:50 AM 28.4 °F 23.3 °F 26.6 °F 93% 30.38 in 10.0 mi NW 4.6 mph - N/A   Overcast
5:10 AM 28.4 °F 24.6 °F 26.6 °F 93% 30.38 in 10.0 mi NNW 3.5 mph - N/A   Overcast
5:30 AM 28.4 °F - 26.6 °F 93% 30.38 in 10.0 mi Calm Calm - N/A   Overcast
5:50 AM 28.4 °F - 26.6 °F 93% 30.38 in 10.0 mi Calm Calm - N/A   Overcast
6:10 AM 28.4 °F - 26.6 °F 93% 30.38 in 10.0 mi Calm Calm - N/A   Overcast
6:30 AM 28.4 °F - 26.6 °F 93% 30.38 in 10.0 mi Calm Calm - N/A   Overcast
6:50 AM 28.4 °F - 26.6 °F 93% 30.38 in 10.0 mi Calm Calm - N/A   Overcast
7:10 AM 28.4 °F - 26.6 °F 93% 30.38 in 10.0 mi Calm Calm - N/A   Overcast
7:30 AM 28.4 °F - 26.6 °F 93% 30.38 in 10.0 mi Calm Calm - N/A   Overcast
7:50 AM 28.4 °F - 26.6 °F 93% 30.38 in 10.0 mi Calm Calm - N/A   Overcast
8:10 AM 28.4 °F - 26.6 °F 93% 30.39 in 10.0 mi Calm Calm - N/A   Overcast
8:30 AM 28.4 °F - 26.6 °F 93% 30.39 in 10.0 mi Calm Calm - N/A   Overcast
8:50 AM 28.4 °F 23.3 °F 26.6 °F 93% 30.39 in 10.0 mi NE 4.6 mph - N/A   Overcast
9:10 AM 28.4 °F - 24.8 °F 86% 30.39 in 10.0 mi Calm Calm - N/A   Overcast
9:30 AM 28.4 °F - 24.8 °F 86% 30.39 in 10.0 mi Calm Calm - N/A   Overcast
9:50 AM 28.4 °F - 24.8 °F 86% 30.39 in 10.0 mi Calm Calm - N/A   Overcast
10:10 AM 28.4 °F - 24.8 °F 86% 30.39 in 10.0 mi Calm Calm - N/A   Overcast
10:30 AM 28.4 °F - 24.8 °F 86% 30.38 in 10.0 mi Calm Calm - N/A   Overcast
10:50 AM 28.4 °F - 24.8 °F 86% 30.37 in 10.0 mi Calm Calm - N/A   Overcast
11:10 AM 28.4 °F - 24.8 °F 86% 30.37 in 10.0 mi Calm Calm - N/A   Overcast
11:30 AM 28.4 °F - 24.8 °F 86% 30.35 in 10.0 mi Calm Calm - N/A   Overcast
11:55 AM 28.4 °F - 24.8 °F 86% 30.33 in 10.0 mi Calm Calm - N/A   Overcast
12:10 PM 28.4 °F - 24.8 °F 86% 30.33 in 10.0 mi Calm Calm - N/A   Overcast
12:30 PM 28.4 °F - 24.8 °F 86% 30.32 in 10.0 mi Calm Calm - N/A   Overcast
12:55 PM 28.4 °F 24.6 °F 24.8 °F 86% 30.29 in 10.0 mi SSW 3.5 mph - N/A   Overcast
1:10 PM 28.4 °F - 24.8 °F 86% 30.29 in 10.0 mi Calm Calm - N/A   Overcast
1:30 PM 28.4 °F - 24.8 °F 86% 30.28 in 10.0 mi Calm Calm - N/A   Overcast
1:50 PM 30.2 °F - 26.6 °F 86% 30.27 in 10.0 mi Calm Calm - N/A   Overcast
2:10 PM 30.2 °F - 26.6 °F 86% 30.26 in 10.0 mi Calm Calm - N/A   Overcast
2:30 PM 30.2 °F - 26.6 °F 86% 30.25 in 10.0 mi Calm Calm - N/A   Overcast
2:50 PM 30.2 °F - 26.6 °F 86% 30.25 in 10.0 mi Calm Calm - N/A   Overcast
3:10 PM 30.2 °F - 26.6 °F 86% 30.25 in 10.0 mi Calm Calm - N/A   Overcast
3:30 PM 28.4 °F - 26.6 °F 93% 30.25 in 10.0 mi Calm Calm - N/A   Overcast
3:50 PM 28.4 °F - 26.6 °F 93% 30.25 in 10.0 mi Calm Calm - N/A   Overcast
4:10 PM 28.4 °F - 26.6 °F 93% 30.24 in 10.0 mi Calm Calm - N/A   Overcast
4:30 PM 28.4 °F - 26.6 °F 93% 30.24 in 10.0 mi Calm Calm - N/A   Overcast
4:50 PM 28.4 °F - 26.6 °F 93% 30.24 in 10.0 mi Calm Calm - N/A   Overcast
5:10 PM 28.4 °F - 26.6 °F 93% 30.24 in 10.0 mi Calm Calm - N/A   Overcast
5:30 PM 28.4 °F - 26.6 °F 93% 30.23 in 10.0 mi Calm Calm - N/A   Overcast
5:50 PM 28.4 °F - 26.6 °F 93% 30.22 in 10.0 mi Calm Calm - N/A   Overcast
6:10 PM 28.4 °F - 26.6 °F 93% 30.22 in 10.0 mi Calm Calm - N/A   Overcast
6:30 PM 28.4 °F - 26.6 °F 93% 30.21 in 10.0 mi Calm Calm - N/A   Overcast
6:50 PM 28.4 °F - 26.6 °F 93% 30.20 in 10.0 mi Calm Calm - N/A   Overcast
7:10 PM 28.4 °F - 26.6 °F 93% 30.19 in 10.0 mi Calm Calm - N/A   Overcast
7:30 PM 28.4 °F - 26.6 °F 93% 30.19 in 10.0 mi Calm Calm - N/A   Overcast
7:50 PM 28.4 °F - 26.6 °F 93% 30.19 in 10.0 mi Calm Calm - N/A   Overcast
8:10 PM 28.4 °F - 26.6 °F 93% 30.19 in 10.0 mi Calm Calm - N/A   Overcast
8:30 PM 28.4 °F 24.6 °F 26.6 °F 93% 30.20 in 10.0 mi NW 3.5 mph - N/A   Overcast
8:50 PM 28.4 °F - 26.6 °F 93% 30.19 in 10.0 mi Calm Calm - N/A   Overcast
9:10 PM 28.4 °F 24.6 °F 26.6 °F 93% 30.19 in 10.0 mi NW 3.5 mph - N/A   Overcast
9:30 PM 28.4 °F - 26.6 °F 93% 30.19 in 10.0 mi Calm Calm - N/A   Overcast
9:50 PM 28.4 °F - 26.6 °F 93% 30.19 in 10.0 mi Calm Calm - N/A   Overcast
10:10 PM 28.4 °F - 26.6 °F 93% 30.19 in 10.0 mi Calm Calm - N/A   Overcast
10:30 PM 28.4 °F - 26.6 °F 93% 30.19 in 8.0 mi Calm Calm - N/A   Overcast
10:50 PM 28.4 °F 23.3 °F 26.6 °F 93% 30.19 in 10.0 mi WNW 4.6 mph - N/A   Overcast
11:15 PM 28.4 °F 24.6 °F 26.6 °F 93% 30.18 in 10.0 mi South 3.5 mph - N/A   Overcast
11:30 PM 28.4 °F - 26.6 °F 93% 30.17 in 10.0 mi Calm Calm - N/A   Overcast
11:50 PM 28.4 °F - 26.6 °F 93% 30.16 in 10.0 mi Calm Calm - N/A   Overcast